Regional Weather Roundup
Issued by NWS Tiyan, Guam

Home | Current Version | Previous Version | Text Only | Print | Product List | Glossary On
Versions: 1 2 3 4 5 6 7 8 9 10 11 12 13 14 15 16 17 18 19 20 21 22 23 24 25 26 27
000
ASGM40 PGUM 240412
RWRGUM
WEATHER ROUNDUP FOR THE MARIANAS
NATIONAL WEATHER SERVICE TIYAN GU
200 PM CHST SAT FEB 24 2018

GUZ001>004-240500-
MARIANA ISLANDS-

CITY           SKY/WX    TMP DP  RH WIND       PRES   REMARKS
GUAM AIRPORT   MOSUNNY   88  75  66 E17G28    29.90F HX  97
ANDERSEN AFB   MOSUNNY   86  72  62 E20       29.91F HX  92
ROTA AIRPORT   NOT AVBL
TINIAN AP      MOSUNNY   82  77  83 NE17      29.90F HX  91
SAIPAN AP      MOSUNNY   88  73  62 NE20      29.91F HX  96

$$





USA.gov is the U.S. government's official web portal to all federal, state and local government web resources and services.